Location: Laguna de la Cañada del Gallo
(40.3974°N, 5.2096°W)
Time: 02:30:38
(UTC+00:00)

ACS3 Solar Sail - Visible Passes

Search period start: 21 June 2024 00:00
Search period end: 01 July 2024 00:00
Orbit: 992 x 1024 km, 97.4° (Epoch: 20 June)

Date Brightness Start Highest point End Pass type
(mag) Time Alt. Az. Time Alt. Az. Time Alt. Az.
21 Jun 6.1 20:41:08 10° ESE 20:46:07 26° ENE 20:51:06 10° NNE visible
21 Jun 5.4 22:26:12 24° SSW 22:29:52 50° W 22:35:55 10° NNW visible
22 Jun 5.3 21:15:39 17° SE 21:20:14 48° ENE 21:26:10 10° N visible
22 Jun 6.4 23:01:00 16° SW 23:04:33 26° W 23:09:39 10° NW visible
23 Jun 4.8 21:50:26 23° SSE 21:54:32 89° ENE 22:00:48 10° NNW visible
23 Jun 7.1 23:36:47 10° WSW 23:39:24 13° W 23:42:04 10° WNW visible
24 Jun 6.0 20:40:12 10° ESE 20:45:14 27° ENE 20:50:17 10° NNE visible
24 Jun 5.5 22:25:14 22° SSW 22:29:01 49° W 22:35:02 10° NNW visible
25 Jun 5.2 21:14:42 17° SE 21:19:22 49° ENE 21:25:19 10° N visible
25 Jun 6.4 23:00:02 15° SW 23:03:42 25° W 23:08:44 10° NW visible
26 Jun 4.8 21:49:30 22° SSE 21:53:41 89° WSW 21:59:56 10° NNW visible
26 Jun 7.1 23:36:12 10° WSW 23:38:35 12° W 23:40:59 10° WNW visible
27 Jun 6.0 20:39:16 10° ESE 20:44:22 28° ENE 20:49:28 10° N visible
27 Jun 5.5 22:24:17 21° SSW 22:28:10 47° W 22:34:09 10° NNW visible
28 Jun 5.2 21:13:45 16° SE 21:18:30 51° ENE 21:24:28 10° N visible
28 Jun 6.5 22:59:05 14° SW 23:02:52 24° W 23:07:49 10° NW visible
29 Jun 4.8 21:48:33 22° S 21:52:49 86° WSW 21:59:05 10° NNW visible
29 Jun 7.1 23:35:39 10° WSW 23:37:46 12° W 23:39:52 10° WNW visible
30 Jun 5.9 20:38:20 10° ESE 20:43:29 28° ENE 20:48:38 10° N visible
30 Jun 5.6 22:23:21 20° SSW 22:27:19 45° W 22:33:16 10° NNW visible
